| time (UTC) | temp C | wind direction | speed KPH | gust KPH | rain 1hr cm | rain 24hr cm | rain mn cm | humidity % | barometer mb |
| 20260906051940 | 10 | 344 | 11.3 | 22.5 | 0.00 | 0.00 | 0.00 | 75 | 1002.2 |
| 20260906051025 | 10 | 340 | 12.9 | 25.7 | 0.00 | 0.00 | 0.00 | 76 | 1002.2 |
| 20260906050130 | 10 | 339 | 12.9 | 25.7 | 0.00 | 0.00 | 0.00 | 77 | 1002.1 |
| 20260906045212 | 9 | 337 | 11.3 | 22.5 | 0.00 | 0.00 | 0.00 | 79 | 1002.1 |
| 20260906044240 | 9 | 348 | 14.5 | 30.6 | 0.00 | 0.00 | 0.00 | 80 | 1002.1 |
| 20260906043330 | 9 | 336 | 11.3 | 22.5 | 0.00 | 0.00 | 0.00 | 80 | 1001.9 |
| 20260906042445 | 9 | 339 | 11.3 | 20.9 | 0.00 | 0.00 | 0.00 | 81 | 1001.8 |
| 20260906041610 | 9 | 336 | 9.7 | 19.3 | 0.00 | 0.00 | 0.00 | 81 | 1001.7 |
| 20260906040645 | 9 | 336 | 11.3 | 25.7 | 0.00 | 0.00 | 0.00 | 82 | 1001.6 |
| 20260906035815 | 9 | 338 | 12.9 | 25.7 | 0.00 | 0.00 | 0.00 | 84 | 1001.6 |
| 20260906034852 | 9 | 342 | 16.1 | 35.4 | 0.00 | 0.00 | 0.00 | 86 | 1001.4 |
| 20260906033935 | 9 | 330 | 11.3 | 35.4 | 0.00 | 0.00 | 0.00 | 87 | 1000.9 |
| 20260906033050 | 9 | 319 | 6.4 | 14.5 | 0.00 | 0.00 | 0.00 | 89 | 1001.2 |
| 20260906032210 | 9 | 323 | 8.0 | 17.7 | 0.00 | 0.00 | 0.00 | 88 | 1001.0 |
| 20260906031320 | 9 | 323 | 8.0 | 16.1 | 0.00 | 0.00 | 0.00 | 87 | 1000.8 |
| 20260906030415 | 9 | 316 | 6.4 | 16.1 | 0.00 | 0.00 | 0.00 | 87 | 1000.7 |
| 20260906025525 | 9 | 311 | 6.4 | 16.1 | 0.00 | 0.00 | 0.00 | 86 | 1000.6 |
| 20260906024616 | 9 | 296 | 6.4 | 16.1 | 0.00 | 0.00 | 0.00 | 87 | 1000.5 |
| 20260906023705 | 9 | 298 | 6.4 | 12.9 | 0.00 | 0.00 | 0.00 | 87 | 1000.4 |
| 20260906022800 | 10 | 307 | 6.4 | 16.1 | 0.00 | 0.00 | 0.00 | 86 | 1000.3 |
| 20260906021920 | 10 | 309 | 6.4 | 14.5 | 0.00 | 0.00 | 0.00 | 86 | 1000.1 |
| 20260906021020 | 10 | 335 | 6.4 | 17.7 | 0.00 | 0.00 | 0.00 | 86 | 1000.0 |
| 20260906020135 | 10 | 323 | 6.4 | 11.3 | 0.00 | 0.00 | 0.00 | 86 | 999.9 |
| 20260906015235 | 10 | 325 | 6.4 | 16.1 | 0.00 | 0.00 | 0.00 | 87 | 999.8 |
| 20260906014310 | 10 | 312 | 6.4 | 12.9 | 0.00 | 0.00 | 0.00 | 87 | 999.8 |
| 20260906013420 | 10 | 320 | 6.4 | 17.7 | 0.00 | 0.00 | 0.00 | 87 | 999.7 |
| 20260906012445 | 10 | 318 | 4.8 | 12.9 | 0.00 | 0.00 | 0.00 | 87 | 999.6 |
| 20260906011545 | 10 | 319 | 6.4 | 12.9 | 0.00 | 0.00 | 0.00 | 87 | 999.6 |
| 20260906010715 | 10 | 326 | 6.4 | 14.5 | 0.00 | 0.00 | 0.00 | 86 | 999.5 |
| 20260906005820 | 10 | 327 | 8.0 | 16.1 | 0.00 | 0.00 | 0.00 | 86 | 999.5 |
| 20260906004911 | 9 | 317 | 6.4 | 14.5 | 0.00 | 0.00 | 0.00 | 87 | 999.4 |
| 20260906004010 | 9 | 320 | 6.4 | 11.3 | 0.00 | 0.00 | 0.00 | 87 | 999.4 |
| 20260906003100 | 9 | 318 | 4.8 | 9.7 | 0.00 | 0.00 | 0.00 | 88 | 999.3 |
| 20260906002141 | 8 | 315 | 4.8 | 11.3 | 0.00 | 0.00 | 0.00 | 88 | 999.3 |
| 20260906001300 | 8 | 312 | 4.8 | 11.3 | 0.00 | 0.00 | 0.00 | 88 | 999.2 |
| 20260906000350 | 9 | 327 | 6.4 | 11.3 | 0.00 | 0.00 | 0.00 | 88 | 999.1 |
| 20260905235450 | 9 | 313 | 4.8 | 11.3 | 0.00 | 0.00 | 0.00 | 88 | 999.0 |
| 20260905234515 | 9 | 321 | 4.8 | 11.3 | 0.00 | 0.00 | 0.00 | 87 | 998.8 |
| 20260905233543 | 9 | 324 | 4.8 | 12.9 | 0.00 | 0.00 | 0.00 | 87 | 998.6 |
| 20260905232649 | 10 | 329 | 6.4 | 14.5 | 0.00 | 0.00 | 0.00 | 86 | 998.4 |
| 20260905231730 | 10 | 323 | 6.4 | 16.1 | 0.00 | 0.00 | 0.00 | 87 | 998.3 |
| 20260905230845 | 10 | 320 | 6.4 | 16.1 | 0.00 | 0.00 | 0.00 | 87 | 998.2 |
| 20260905225934 | 10 | 317 | 6.4 | 11.3 | 0.00 | 0.00 | 0.00 | 86 | 998.1 |
| 20260905224950 | 10 | 326 | 6.4 | 14.5 | 0.00 | 0.00 | 0.00 | 86 | 997.9 |
| 20260905224040 | 10 | 329 | 8.0 | 14.5 | 0.00 | 0.00 | 0.00 | 85 | 997.8 |
| 20260905223150 | 10 | 331 | 8.0 | 16.1 | 0.00 | 0.00 | 0.00 | 86 | 997.6 |
| 20260905222227 | 10 | 330 | 6.4 | 14.5 | 0.00 | 0.00 | 0.00 | 86 | 997.6 |
| 20260905221330 | 10 | 328 | 8.0 | 17.7 | 0.00 | 0.00 | 0.00 | 87 | 997.6 |
| 20260905220450 | 10 | 321 | 6.4 | 14.5 | 0.00 | 0.00 | 0.00 | 87 | 997.5 |
| 20260905215612 | 10 | 332 | 8.0 | 14.5 | 0.00 | 0.00 | 0.00 | 86 | 997.4 |
| 20260905214720 | 11 | 332 | 6.4 | 16.1 | 0.00 | 0.00 | 0.00 | 86 | 997.3 |
| 20260905213900 | 11 | 322 | 6.4 | 16.1 | 0.00 | 0.00 | 0.00 | 85 | 997.2 |
| 20260905213005 | 11 | 319 | 4.8 | 12.9 | 0.00 | 0.00 | 0.00 | 84 | 997.1 |
| 20260905212132 | 11 | 333 | 6.4 | 11.3 | 0.00 | 0.00 | 0.00 | 83 | 996.9 |
| 20260905211252 | 11 | 336 | 8.0 | 12.9 | 0.00 | 0.00 | 0.00 | 81 | 996.7 |
| 20260905210445 | 11 | 340 | 8.0 | 17.7 | 0.00 | 0.00 | 0.00 | 81 | 996.7 |
| 20260905205550 | 11 | 343 | 8.0 | 16.1 | 0.00 | 0.00 | 0.00 | 81 | 996.5 |
| 20260905204700 | 12 | 333 | 8.0 | 16.1 | 0.00 | 0.00 | 0.00 | 81 | 996.4 |
| 20260905203715 | 12 | 335 | 6.4 | 12.9 | 0.00 | 0.00 | 0.00 | 82 | 996.2 |
| 20260905202852 | 12 | 334 | 8.0 | 16.1 | 0.00 | 0.00 | 0.00 | 81 | 996.0 |
| 20260905202012 | 12 | 331 | 6.4 | 12.9 | 0.00 | 0.00 | 0.00 | 81 | 995.9 |
| 20260905201130 | 12 | 334 | 6.4 | 14.5 | 0.00 | 0.00 | 0.00 | 80 | 995.7 |
| 20260905200225 | 12 | 328 | 6.4 | 12.9 | 0.00 | 0.00 | 0.00 | 80 | 995.4 |
| 20260905195355 | 12 | 322 | 6.4 | 14.5 | 0.00 | 0.00 | 0.00 | 79 | 995.3 |
| 20260905194459 | 13 | 327 | 6.4 | 14.5 | 0.00 | 0.00 | 0.00 | 78 | 995.3 |
| 20260905193605 | 13 | 323 | 6.4 | 16.1 | 0.00 | 0.00 | 0.00 | 78 | 995.2 |
| 20260905192745 | 13 | 327 | 6.4 | 12.9 | 0.00 | 0.00 | 0.00 | 77 | 995.1 |
| 20260905191928 | 13 | 323 | 6.4 | 12.9 | 0.00 | 0.00 | 0.00 | 77 | 995.0 |
| 20260905191025 | 13 | 317 | 4.8 | 12.9 | 0.00 | 0.00 | 0.00 | 76 | 994.8 |
| 20260905190105 | 13 | 313 | 4.8 | 9.7 | 0.00 | 0.00 | 0.00 | 75 | 994.8 |
| 20260905185150 | 13 | 309 | 3.2 | 6.4 | 0.00 | 0.00 | 0.00 | 74 | 994.7 |
| 20260905184235 | 13 | 319 | 4.8 | 14.5 | 0.00 | 0.00 | 0.00 | 73 | 994.6 |
| 20260905183330 | 13 | 321 | 4.8 | 11.3 | 0.00 | 0.00 | 0.00 | 73 | 994.5 |
| 20260905182444 | 13 | 320 | 4.8 | 11.3 | 0.00 | 0.00 | 0.00 | 72 | 994.4 |
| 20260905181612 | 13 | 310 | 4.8 | 11.3 | 0.00 | 0.00 | 0.00 | 71 | 994.3 |
| 20260905180655 | 14 | 309 | 3.2 | 11.3 | 0.00 | 0.00 | 0.00 | 71 | 994.2 |
| 20260905175815 | 14 | 312 | 3.2 | 6.4 | 0.00 | 0.00 | 0.00 | 70 | 994.1 |
| 20260905175000 | 14 | 317 | 3.2 | 6.4 | 0.00 | 0.00 | 0.00 | 70 | 994.0 |
| 20260905174020 | 14 | 300 | 1.6 | 6.4 | 0.00 | 0.00 | 0.00 | 70 | 994.0 |
| 20260905173125 | 14 | 294 | 1.6 | 6.4 | 0.00 | 0.00 | 0.00 | 70 | 993.9 |
| 20260905172245 | 15 | 294 | 1.6 | 6.4 | 0.00 | 0.00 | 0.00 | 68 | 993.7 |
| 20260905171335 | 15 | 289 | 1.6 | 6.4 | 0.00 | 0.00 | 0.00 | 68 | 993.6 |
| 20260905170500 | 15 | 290 | 1.6 | 6.4 | 0.00 | 0.00 | 0.00 | 67 | 993.4 |
| 20260905165605 | 15 | 291 | 3.2 | 8.0 | 0.00 | 0.00 | 0.00 | 66 | 993.3 |
| 20260905164712 | 15 | 287 | 3.2 | 8.0 | 0.00 | 0.00 | 0.00 | 65 | 993.2 |
| 20260905163735 | 15 | 305 | 3.2 | 9.7 | 0.00 | 0.00 | 0.00 | 64 | 992.9 |
| 20260905162810 | 15 | 290 | 3.2 | 9.7 | 0.00 | 0.00 | 0.00 | 62 | 992.8 |
| 20260905161916 | 16 | 292 | 4.8 | 11.3 | 0.00 | 0.00 | 0.00 | 61 | 992.5 |
| 20260905161030 | 16 | 298 | 4.8 | 11.3 | 0.00 | 0.00 | 0.00 | 59 | 992.2 |
| 20260905160115 | 16 | 285 | 4.8 | 14.5 | 0.00 | 0.00 | 0.00 | 58 | 992.0 |
| 20260905155150 | 16 | 287 | 4.8 | 11.3 | 0.00 | 0.00 | 0.00 | 58 | 991.9 |
| 20260905154312 | 16 | 280 | 4.8 | 11.3 | 0.00 | 0.00 | 0.00 | 59 | 991.8 |
| 20260905153355 | 16 | 281 | 6.4 | 12.9 | 0.00 | 0.00 | 0.00 | 60 | 991.9 |
| 20260905152455 | 16 | 279 | 4.8 | 12.9 | 0.00 | 0.00 | 0.00 | 60 | 991.9 |
| 20260905151632 | 16 | 295 | 6.4 | 14.5 | 0.00 | 0.00 | 0.00 | 58 | 991.7 |
| 20260905150752 | 16 | 293 | 6.4 | 14.5 | 0.00 | 0.00 | 0.00 | 57 | 991.6 |
| 20260905145845 | 16 | 289 | 4.8 | 11.3 | 0.00 | 0.00 | 0.00 | 58 | 991.6 |
| 20260905144944 | 16 | 273 | 4.8 | 9.7 | 0.00 | 0.00 | 0.00 | 57 | 991.5 |
| 20260905144040 | 16 | 288 | 3.2 | 8.0 | 0.00 | 0.00 | 0.00 | 56 | 991.4 |
| 20260905143130 | 16 | 297 | 4.8 | 16.1 | 0.00 | 0.00 | 0.00 | 54 | 991.3 |
| 20260905142250 | 16 | 311 | 4.8 | 12.9 | 0.00 | 0.00 | 0.00 | 54 | 991.2 |
| 20260905141340 | 16 | 307 | 6.4 | 16.1 | 0.00 | 0.00 | 0.00 | 53 | 991.1 |
| 20260905140445 | 17 | 324 | 6.4 | 14.5 | 0.00 | 0.00 | 0.00 | 51 | 990.9 |
| 20260905135550 | 17 | 338 | 6.4 | 11.3 | 0.00 | 0.00 | 0.00 | 51 | 990.7 |
| 20260905134655 | 17 | 329 | 6.4 | 14.5 | 0.00 | 0.00 | 0.00 | 49 | 990.6 |
| 20260905133800 | 17 | 312 | 6.4 | 14.5 | 0.00 | 0.00 | 0.00 | 48 | 990.4 |
| 20260905132920 | 17 | 297 | 6.4 | 14.5 | 0.00 | 0.00 | 0.00 | 49 | 990.4 |
| 20260905132000 | 17 | 328 | 9.7 | 19.3 | 0.00 | 0.00 | 0.00 | 49 | 990.6 |
| 20260905131056 | 17 | 335 | 9.7 | 19.3 | 0.00 | 0.00 | 0.00 | 50 | 990.6 |
| 20260905130225 | 17 | 333 | 9.7 | 19.3 | 0.00 | 0.00 | 0.00 | 51 | 990.5 |
| 20260905125232 | 17 | 327 | 4.8 | 16.1 | 0.00 | 0.00 | 0.00 | 53 | 990.5 |
| 20260905124323 | 16 | 329 | 4.8 | 14.5 | 0.00 | 0.00 | 0.00 | 56 | 990.8 |
| 20260905123452 | 16 | 289 | 6.4 | 19.3 | 0.00 | 0.00 | 0.00 | 56 | 990.6 |
| 20260905122606 | 17 | 278 | 3.2 | 12.9 | 0.00 | 0.00 | 0.00 | 55 | 990.3 |
| 20260905121725 | 17 | 250 | 3.2 | 8.0 | 0.00 | 0.00 | 0.00 | 53 | 990.1 |
| 20260905120832 | 17 | 232 | 3.2 | 12.9 | 0.00 | 0.00 | 0.00 | 57 | 989.9 |
| 20260905115950 | 17 | 253 | 4.8 | 9.7 | 0.00 | 0.00 | 0.00 | 55 | 989.9 |
| 20260905115030 | 17 | 235 | 4.8 | 11.3 | 0.00 | 0.00 | 0.00 | 56 | 990.0 |
| 20260905114140 | 17 | 224 | 4.8 | 11.3 | 0.00 | 0.00 | 0.00 | 59 | 990.2 |
| 20260905113300 | 16 | 234 | 4.8 | 11.3 | 0.00 | 0.00 | 0.00 | 60 | 990.4 |
| 20260905112400 | 16 | 252 | 3.2 | 9.7 | 0.00 | 0.00 | 0.00 | 61 | 990.5 |
| 20260905111455 | 16 | 251 | 3.2 | 8.0 | 0.00 | 0.00 | 0.00 | 61 | 990.6 |
| 20260905110525 | 16 | 264 | 4.8 | 8.0 | 0.00 | 0.00 | 0.00 | 59 | 990.5 |
| 20260905105632 | 16 | 278 | 3.2 | 8.0 | 0.00 | 0.00 | 0.00 | 59 | 990.4 |
| 20260905104715 | 16 | 269 | 3.2 | 8.0 | 0.00 | 0.00 | 0.00 | 62 | 990.5 |
| 20260905103810 | 15 | 265 | 1.6 | 6.4 | 0.00 | 0.00 | 0.00 | 61 | 990.4 |
| 20260905102845 | 15 | 331 | 4.8 | 12.9 | 0.00 | 0.00 | 0.00 | 62 | 990.3 |
| 20260905101943 | 16 | 339 | 4.8 | 14.5 | 0.00 | 0.00 | 0.00 | 61 | 990.0 |
| 20260905101100 | 16 | 344 | 3.2 | 11.3 | 0.00 | 0.00 | 0.00 | 58 | 989.6 |
| 20260905100210 | 16 | 323 | 3.2 | 11.3 | 0.00 | 0.00 | 0.00 | 57 | 989.4 |
| 20260905095310 | 16 | 294 | 3.2 | 8.0 | 0.00 | 0.00 | 0.00 | 59 | 989.5 |
| 20260905094405 | 16 | 286 | 3.2 | 9.7 | 0.00 | 0.00 | 0.00 | 60 | 989.4 |
| 20260905093505 | 16 | 266 | 3.2 | 9.7 | 0.00 | 0.00 | 0.00 | 58 | 989.3 |
| 20260905092550 | 16 | 136 | 3.2 | 6.4 | 0.00 | 0.00 | 0.00 | 62 | 989.6 |
| 20260905091700 | 16 | 258 | 1.6 | 9.7 | 0.00 | 0.00 | 0.00 | 64 | 989.8 |
| 20260905090740 | 15 | 284 | 4.8 | 11.3 | 0.00 | 0.00 | 0.00 | 64 | 990.0 |
| 20260905085845 | 15 | 316 | 1.6 | 6.4 | 0.00 | 0.00 | 0.00 | 66 | 989.9 |
| 20260905085000 | 15 | 302 | 3.2 | 9.7 | 0.00 | 0.00 | 0.00 | 69 | 990.1 |
| 20260905084037 | 15 | 283 | 3.2 | 9.7 | 0.00 | 0.00 | 0.00 | 71 | 990.2 |
| 20260905083200 | 15 | 276 | 1.6 | 6.4 | 0.00 | 0.00 | 0.00 | 72 | 990.2 |
| 20260905082310 | 15 | 324 | 1.6 | 6.4 | 0.00 | 0.00 | 0.00 | 73 | 990.2 |
| 20260905081425 | 14 | 334 | 1.6 | 4.8 | 0.00 | 0.00 | 0.00 | 74 | 990.3 |
| 20260905080545 | 13 | 349 | 1.6 | 6.4 | 0.00 | 0.00 | 0.00 | 77 | 990.5 |
| 20260905075700 | 13 | 349 | 3.2 | 8.0 | 0.00 | 0.00 | 0.00 | 80 | 990.8 |
| 20260905074752 | 12 | 350 | 3.2 | 8.0 | 0.00 | 0.00 | 0.00 | 82 | 991.0 |
| 20260905073805 | 12 | 345 | 3.2 | 8.0 | 0.00 | 0.00 | 0.00 | 84 | 991.1 |
| 20260905072920 | 11 | 346 | 4.8 | 8.0 | 0.00 | 0.00 | 0.00 | 86 | 991.3 |
| 20260905072045 | 11 | 350 | 4.8 | 8.0 | 0.00 | 0.00 | 0.00 | 87 | 991.5 |
| 20260905071140 | 11 | 354 | 4.8 | 9.7 | 0.00 | 0.00 | 0.00 | 88 | 991.5 |
| 20260905070235 | 11 | 346 | 4.8 | 9.7 | 0.00 | 0.00 | 0.00 | 87 | 991.4 |
| 20260905065320 | 11 | 348 | 3.2 | 8.0 | 0.00 | 0.00 | 0.00 | 87 | 991.4 |
| 20260905064350 | 10 | 350 | 4.8 | 6.4 | 0.00 | 0.00 | 0.00 | 88 | 991.5 |
| 20260905063430 | 10 | 355 | 4.8 | 6.4 | 0.00 | 0.00 | 0.00 | 88 | 991.6 |
| 20260905062515 | 10 | 347 | 3.2 | 6.4 | 0.00 | 0.00 | 0.00 | 88 | 991.7 |
| 20260905061620 | 9 | 338 | 3.2 | 4.8 | 0.00 | 0.00 | 0.00 | 89 | 991.8 |
| 20260905060719 | 8 | 334 | 3.2 | 6.4 | 0.00 | 0.00 | 0.00 | 90 | 991.9 |
| 20260905055825 | 8 | 341 | 3.2 | 4.8 | 0.00 | 0.00 | 0.00 | 90 | 992.0 |
| 20260905054914 | 8 | 345 | 1.6 | 3.2 | 0.00 | 0.00 | 0.00 | 92 | 992.0 |
| 20260905054008 | 8 | 335 | 0.0 | 1.6 | 0.00 | 0.00 | 0.00 | 92 | 992.2 |
| 20260905053052 | 7 | 320 | 1.6 | 3.2 | 0.00 | 0.00 | 0.00 | 92 | 992.6 |
| 20260905052140 | 7 | 326 | 1.6 | 4.8 | 0.00 | 0.00 | 0.00 | 92 | 992.8 |